Chehalis, WA

1:16 AM PST on February 20, 2017 (GMT -0800)
Chehalis-Centralia

Weather History for KCLS - February, 2013

Change the Weather History Date:

Saturday, February 2, 2013

  Actual Average (KTDO) Record (KTDO)
Temperature  
Mean Temperature 42 °F -  
Max Temperature 50 °F 47 °F 65 °F (1962)
Min Temperature 35 °F 32 °F 6 °F (1972)
Degree Days  
Heating Degree Days 22    
Moisture  
Dew Point 39 °F    
Average Humidity 89    
Maximum Humidity 100    
Minimum Humidity 66    
Precipitation  
Precipitation 0.00 in - - ()
Sea Level Pressure  
Sea Level Pressure 30.31 in    
Wind  
Wind Speed 6 mph (NNE)    
Max Wind Speed 10 mph    
Max Gust Speed -    
Visibility 7 miles    
Events Fog    
Averages and records for this station are not official NWS values.
T = Trace of Precipitation, MM = Missing Value Source: NWS Daily Summary

Daily Weather History Graph

Daily Weather History Graph

Search for Another Location

Airport or City:

Trip Planner

Search our weather history database for the weather conditions in past years. The results will help you decide how hot, cold, wet, or windy it might be!

Date:

Astronomy

Feb. 02, 2013 Rise Set
Actual Time 7:34 AM PST 5:17 PM PST
Civil Twilight 7:02 AM PST 5:49 PM PST
Nautical Twilight 6:25 AM PST 6:26 PM PST
Astronomical Twilight 5:50 AM PST 7:01 PM PST
Moon No Moon Rise 10:19 AM PST (2/2)
Length of Visible Light 10h 47m
Length of Day
9h 43m
Waning Gibbous, 58% of the Moon is Illuminated
Feb 2
Waning Gibbous
Feb 3
Last Quarter
Feb 9
New
Feb 17
First Quarter
Feb 25
Full

Hourly Weather History & Observations

Time (PST) Temp. Windchill Dew Point Humidity Pressure Visibility Wind Dir Wind Speed Gust Speed Precip Events Conditions
12:15 AM 44.6 °F 40.7 °F 42.8 °F 93% 30.36 in 10.0 mi NNW 6.9 mph - N/A   Overcast
12:35 AM 44.6 °F 41.4 °F 42.8 °F 93% 30.36 in 10.0 mi North 5.8 mph - N/A   Overcast
12:55 AM 44.6 °F 41.4 °F 42.8 °F 93% 30.36 in 10.0 mi North 5.8 mph - N/A   Overcast
1:15 AM 44.6 °F 41.4 °F 42.8 °F 93% 30.36 in 10.0 mi North 5.8 mph - N/A   Overcast
1:35 AM 44.6 °F 40.2 °F 41.0 °F 87% 30.36 in 10.0 mi North 8.1 mph - N/A   Overcast
1:55 AM 44.6 °F 39.7 °F 41.0 °F 87% 30.36 in 10.0 mi NNE 9.2 mph - N/A   Overcast
2:15 AM 44.6 °F 40.7 °F 41.0 °F 87% 30.36 in 10.0 mi North 6.9 mph - N/A   Overcast
2:35 AM 44.6 °F 40.2 °F 41.0 °F 87% 30.37 in 10.0 mi NNE 8.1 mph - N/A   Overcast
2:55 AM 44.6 °F 41.4 °F 41.0 °F 87% 30.36 in 10.0 mi North 5.8 mph - N/A   Overcast
3:15 AM 44.6 °F 42.2 °F 41.0 °F 87% 30.36 in 9.0 mi North 4.6 mph - N/A   Overcast
3:35 AM 44.6 °F 42.2 °F 41.0 °F 87% 30.36 in 10.0 mi North 4.6 mph - N/A   Overcast
3:55 AM 42.8 °F 38.0 °F 41.0 °F 93% 30.35 in 9.0 mi NNE 8.1 mph - N/A   Overcast
4:15 AM 42.8 °F 38.0 °F 41.0 °F 93% 30.34 in 8.0 mi NNE 8.1 mph - N/A   Overcast
4:35 AM 42.8 °F 38.0 °F 41.0 °F 93% 30.34 in 7.0 mi North 8.1 mph - N/A   Overcast
4:55 AM 42.8 °F 38.0 °F 41.0 °F 93% 30.34 in 9.0 mi North 8.1 mph - N/A   Overcast
5:15 AM 42.8 °F 39.3 °F 41.0 °F 93% 30.34 in 9.0 mi North 5.8 mph - N/A   Overcast
5:35 AM 41.0 °F 35.8 °F 39.2 °F 93% 30.32 in 5.0 mi NE 8.1 mph - N/A   Overcast
5:55 AM 41.0 °F 38.0 °F 39.2 °F 93% 30.32 in 5.0 mi NE 4.6 mph - N/A   Overcast
6:15 AM 41.0 °F 38.0 °F 39.2 °F 93% 30.32 in 6.0 mi NNE 4.6 mph - N/A   Overcast
6:35 AM 41.0 °F 35.2 °F 39.2 °F 93% 30.32 in 5.0 mi NNE 9.2 mph - N/A   Overcast
6:55 AM 41.0 °F 34.7 °F 39.2 °F 93% 30.32 in 5.0 mi NNE 10.4 mph - N/A   Overcast
7:15 AM 41.0 °F 36.4 °F 39.2 °F 93% 30.32 in 5.0 mi NNE 6.9 mph - N/A   Overcast
7:35 AM 41.0 °F 35.8 °F 39.2 °F 93% 30.32 in 8.0 mi NE 8.1 mph - N/A   Overcast
7:55 AM 41.0 °F 35.8 °F 39.2 °F 93% 30.33 in 9.0 mi NNE 8.1 mph - N/A   Overcast
8:15 AM 41.0 °F 35.8 °F 39.2 °F 93% 30.34 in 8.0 mi NE 8.1 mph - N/A   Overcast
8:55 AM 41.0 °F 36.4 °F 39.2 °F 93% 30.34 in 4.0 mi NNE 6.9 mph - N/A   Overcast
9:15 AM 41.0 °F 37.1 °F 39.2 °F 93% 30.34 in 5.0 mi NNE 5.8 mph - N/A   Overcast
9:35 AM 41.0 °F 37.1 °F 39.2 °F 93% 30.34 in 9.0 mi NNE 5.8 mph - N/A   Overcast
9:55 AM 41.0 °F 37.1 °F 39.2 °F 93% 30.34 in 10.0 mi NE 5.8 mph - N/A   Overcast
10:15 AM 42.8 °F 39.3 °F 39.2 °F 87% 30.34 in 8.0 mi North 5.8 mph - N/A   Overcast
10:35 AM 42.8 °F 40.1 °F 39.2 °F 87% 30.34 in 5.0 mi North 4.6 mph - N/A   Overcast
10:55 AM 42.8 °F 41.1 °F 39.2 °F 87% 30.34 in 5.0 mi NNE 3.5 mph - N/A   Overcast
11:15 AM 44.6 °F 41.4 °F 39.2 °F 81% 30.33 in 5.0 mi North 5.8 mph - N/A   Haze
11:35 AM 44.6 °F 43.1 °F 39.2 °F 81% 30.32 in 9.0 mi North 3.5 mph - N/A   Overcast
12:15 PM 44.6 °F 40.7 °F 39.2 °F 81% 30.32 in 7.0 mi NNE 6.9 mph - N/A   Mostly Cloudy
12:35 PM 46.4 °F 43.5 °F 39.2 °F 76% 30.31 in 5.0 mi NE 5.8 mph - N/A   Haze
12:55 PM 46.4 °F 43.5 °F 39.2 °F 76% 30.30 in 5.0 mi NNE 5.8 mph - N/A   Haze
1:15 PM 46.4 °F 43.5 °F 39.2 °F 76% 30.30 in 5.0 mi NNE 5.8 mph - N/A   Haze
1:35 PM 48.2 °F - 39.2 °F 71% 30.30 in 5.0 mi North 4.6 mph - N/A   Haze
1:55 PM 48.2 °F - 39.2 °F 71% 30.29 in 9.0 mi NNE 3.5 mph - N/A   Clear
2:15 PM 50.0 °F - 39.2 °F 66% 30.29 in 8.0 mi NNW 4.6 mph - N/A   Clear
2:35 PM 48.2 °F - 39.2 °F 71% 30.29 in 10.0 mi North 4.6 mph - N/A   Clear
2:55 PM 48.2 °F - 39.2 °F 71% 30.28 in 10.0 mi North 3.5 mph - N/A   Clear
3:15 PM 48.2 °F - 41.0 °F 76% 30.28 in 10.0 mi North 3.5 mph - N/A   Clear
3:35 PM 50.0 °F - 41.0 °F 71% 30.27 in 10.0 mi North 4.6 mph - N/A   Clear
3:55 PM 50.0 °F - 41.0 °F 71% 30.28 in 10.0 mi North 3.5 mph - N/A   Clear
4:15 PM 50.0 °F - 41.0 °F 71% 30.27 in 10.0 mi North 3.5 mph - N/A   Clear
4:35 PM 48.2 °F - 41.0 °F 76% 30.27 in 10.0 mi Calm Calm - N/A   Clear
5:35 PM 42.8 °F - 39.2 °F 87% 30.27 in 10.0 mi Calm Calm - N/A   Clear
5:55 PM 42.8 °F - 39.2 °F 87% 30.26 in 10.0 mi Calm Calm - N/A   Clear
6:15 PM 41.0 °F - 39.2 °F 93% 30.26 in 10.0 mi Calm Calm - N/A   Clear
6:35 PM 39.2 °F - 39.2 °F 100% 30.26 in 5.0 mi Calm Calm - N/A   Clear
6:55 PM 39.2 °F - 39.2 °F 100% 30.26 in 9.0 mi Calm Calm - N/A   Clear
7:15 PM 37.4 °F 34.9 °F 37.4 °F 100% 30.26 in 7.0 mi North 3.5 mph - N/A   Clear
7:35 PM 37.4 °F - 37.4 °F 100% 30.27 in 9.0 mi Calm Calm - N/A   Clear
7:55 PM 37.4 °F - 37.4 °F 100% 30.27 in 7.0 mi Calm Calm - N/A   Clear
8:15 PM 37.4 °F - 37.4 °F 100% 30.27 in 7.0 mi Calm Calm - N/A   Clear
8:55 PM 35.6 °F - 35.6 °F 100% 30.29 in 5.0 mi Calm Calm - N/A   Clear
9:15 PM 35.6 °F - 35.6 °F 100% 30.29 in 2.5 mi Calm Calm - N/A   Scattered Clouds
9:35 PM 35.6 °F - 33.8 °F 93% 30.29 in 3.0 mi Calm Calm - N/A   Mostly Cloudy
9:55 PM 35.6 °F - 35.6 °F 100% 30.29 in 0.8 mi Calm Calm - N/A   Overcast
10:15 PM 35.6 °F - 35.6 °F 100% 30.31 in 0.2 mi Calm Calm - N/A Fog Fog
10:35 PM 35.6 °F 32.8 °F 35.6 °F 100% 30.31 in 0.2 mi SSW 3.5 mph - N/A Fog Fog
10:55 PM 37.4 °F 33.8 °F 35.6 °F 93% 30.30 in 0.2 mi South 4.6 mph - N/A Fog Fog
11:15 PM 35.6 °F 31.7 °F 35.6 °F 100% 30.30 in 0.2 mi SSW 4.6 mph - N/A Fog Fog
11:35 PM 35.6 °F 30.7 °F 35.6 °F 100% 30.29 in 0.2 mi SSW 5.8 mph - N/A Fog Fog
11:55 PM 37.4 °F 33.8 °F 35.6 °F 93% 30.30 in 0.2 mi SSW 4.6 mph - N/A Fog Fog